SR7 AT SR706 WA US WA DOT current weather conditions

sailwx.info

Wind from 100 at 1 knots gusting 2

Air temperature 5.6° C
Visibility: greater than 1.1 NM
Dewpoint 5.3° C

Last reported at 2020-Jan-25 10:02 UTC.
Time now 2020-Jan-25 10:24 UTC

Location: N 46°46' W 122°12'.
View on Google Maps.

See reports from other nearby stations

  
Tides and Currents Weather Stations Pressure Air Temp Water Temp Dewpoint Dewpoint Depression Visibility Wind Speed Wind Dir Waves Ship Positions
date/time (UTC)wind fromknots sea level pressurealtimeterstation pressurevisibilityair tempwater tempwave heightnotes
2020-Jan-25 10:02 100 1 gusting 2 1.1 5.6
2020-Jan-25 09:44 1.1 5.8
2020-Jan-25 09:33 085 0 gusting 4 1.1 6.0
2020-Jan-25 09:25 150 2 gusting 3 1.1 6.1
2020-Jan-25 09:12 030 0 gusting 5 1.1 6.3
2020-Jan-25 09:05 125 2 gusting 5 1.1 6.4
2020-Jan-25 08:55 085 2 gusting 4 1.1 6.4
2020-Jan-25 08:45 105 1 gusting 4 1.1 6.4
2020-Jan-25 08:35 115 1 gusting 3 1.1 6.4
2020-Jan-25 08:23 070 1 gusting 5 1.1 6.6
2020-Jan-25 08:15 105 2 gusting 5 1.1 6.4
2020-Jan-25 08:04 085 2 gusting 7 1.1 6.5
2020-Jan-25 07:52 080 1 gusting 3 1.1 6.4
2020-Jan-25 07:43 075 1 gusting 5 1.1 6.4
2020-Jan-25 07:33 080 1 gusting 4 1.1 6.3
2020-Jan-25 07:25 085 1 gusting 4 1.1 6.3
2020-Jan-25 07:16 110 1 gusting 5 1.1 6.4
2020-Jan-25 07:03 110 1 gusting 4 1.1 6.4
2020-Jan-25 06:53 115 1 gusting 4 1.1 6.4
2020-Jan-25 06:46 080 2 gusting 7 1.1 6.4
2020-Jan-25 06:36 065 1 gusting 3 1.1 6.5
2020-Jan-25 06:25 075 1 gusting 4 1.1 6.6
2020-Jan-25 06:13 1.1 6.6
2020-Jan-25 06:04 060 2 gusting 5 1.1 6.6
2020-Jan-25 05:56 115 2 gusting 5 1.1 6.6
2020-Jan-25 05:46 075 1 gusting 4 1.1 6.6
2020-Jan-25 05:33 130 1 gusting 4 1.1 6.6
2020-Jan-25 05:24 070 0 gusting 4 1.1 6.7
2020-Jan-25 05:14 030 1 gusting 5 1.1 6.7
2020-Jan-25 05:04 125 1 gusting 2 1.1 6.8
2020-Jan-25 04:54 080 1 gusting 5 1.1 6.7
2020-Jan-25 04:45 035 1 gusting 5 1.1 6.7
2020-Jan-25 04:37 110 1 gusting 5 1.1 6.8
2020-Jan-25 04:25 105 2 gusting 4 1.1 6.8
2020-Jan-25 04:15 130 1 gusting 3 1.1 6.7
2020-Jan-25 04:05 045 2 gusting 5 1.1 6.9
2020-Jan-25 03:55 050 1 gusting 3 1.1 6.9
2020-Jan-25 03:43 130 2 gusting 4 1.1 6.9
2020-Jan-25 03:35 090 1 gusting 2 1.1 6.9
2020-Jan-25 03:14 055 0 gusting 3 1.1 7.0
2020-Jan-25 03:03 080 1 gusting 5 1.1 7.1
2020-Jan-25 02:53 085 1 gusting 4 1.1 7.1
2020-Jan-25 02:46 090 1 gusting 3 1.1 7.2
2020-Jan-25 02:35 085 1 gusting 5 1.1 7.2
2020-Jan-25 02:24 080 0 gusting 4 1.1 7.2
2020-Jan-25 02:16 135 2 gusting 3 1.1 7.3
2020-Jan-25 02:04 110 1 gusting 4 1.1 7.3
2020-Jan-25 01:55 085 1 gusting 2 1.1 7.5
2020-Jan-25 01:45 1.1 7.7
2020-Jan-25 01:36 045 0 gusting 7 1.1 7.8
2020-Jan-25 01:27 125 3 gusting 8 1.1 8.1
2020-Jan-25 01:06 075 1 gusting 5 1.1 8.4
2020-Jan-25 00:54 075 2 gusting 7 1.1 8.5
2020-Jan-25 00:44 085 1 gusting 4 1.1 8.6
2020-Jan-25 00:38 085 1 gusting 4 1.1 8.7
2020-Jan-25 00:24 125 1 gusting 7 1.1 8.8
2020-Jan-25 00:14 130 3 gusting 7 1.1 9.0
2020-Jan-25 00:06 080 1 gusting 8 1.1 9.1
2020-Jan-24 23:55 130 4 gusting 7 1.1 9.4
2020-Jan-24 23:47 125 0 gusting 5 1.1 9.7
2020-Jan-24 23:34 145 1 gusting 3 1.1 9.9
2020-Jan-24 23:26 075 1 gusting 5 1.1 9.8
2020-Jan-24 23:12 080 1 gusting 4 1.110.5
2020-Jan-24 23:05 140 2 gusting 5 1.110.8
2020-Jan-24 22:54 070 1 gusting 2 1.110.4
2020-Jan-24 22:47 115 1 gusting 4 1.110.6
2020-Jan-24 22:34 030 2 gusting 3 1.110.3
2020-Jan-24 22:24 1.110.5
2020-Jan-24 22:12 030 2 gusting 4 1.110.0
2020-Jan-24 22:02 050 1 gusting 8 1.110.3
2020-Jan-24 21:54 120 4 gusting 9 1.110.2
2020-Jan-24 21:44 110 0 gusting 4 1.111.3
2020-Jan-24 21:34 105 1 gusting 2 1.110.7
2020-Jan-24 21:23 140 0 gusting 2 1.1 9.8
2020-Jan-24 21:13 125 3 gusting 7 1.1 9.9
2020-Jan-24 21:03 125 1 gusting 6 1.110.3
2020-Jan-24 20:53 345 1 gusting 3 1.1 9.9
2020-Jan-24 20:43 120 1 gusting 4 1.1 9.1
2020-Jan-24 20:35 060 1 gusting 4 1.1 9.0
2020-Jan-24 20:27 040 1 gusting 2 1.1 9.0
2020-Jan-24 20:15 130 1 gusting 2 1.1 8.8
2020-Jan-24 20:03 040 2 gusting 4 1.1 8.5
2020-Jan-24 19:54 010 1 gusting 2 1.1 8.5
2020-Jan-24 19:44 015 1 gusting 5 1.1 8.4
2020-Jan-24 19:33 345 2 gusting 3 1.1 8.2
2020-Jan-24 19:23 290 0 gusting 5 1.1 8.1
2020-Jan-24 19:14 095 1 gusting 3 1.1 8.1
2020-Jan-24 19:03 020 1 gusting 5 1.1 8.1
2020-Jan-24 18:54 095 4 gusting 8 1.1 8.0
2020-Jan-24 18:46 125 2 gusting 7 1.1 8.0
2020-Jan-24 18:33 065 0 gusting 4 1.1 8.1
2020-Jan-24 18:24 130 2 gusting 8 1.1 8.0
2020-Jan-24 18:14 070 1 gusting 5 1.1 7.9
2020-Jan-24 18:03 120 5 gusting 10 1.1 7.7
2020-Jan-24 17:54 080 1 gusting 8 1.1 7.8
2020-Jan-24 17:45 125 1 gusting 9 1.1 7.8
2020-Jan-24 17:36 165 1 gusting 10 1.1 8.1
2020-Jan-24 17:23 100 3 gusting 7 1.1 8.0
2020-Jan-24 17:14 070 3 gusting 10 1.1 8.0
2020-Jan-24 17:05 120 5 gusting 13 1.1 8.3
2020-Jan-24 16:57 090 6 gusting 14 1.1 8.1
2020-Jan-24 16:44 140 5 gusting 11 1.1 7.7
2020-Jan-24 16:33 050 3 gusting 8 1.1 7.6
2020-Jan-24 16:25 055 3 gusting 7 1.1 7.3
2020-Jan-24 16:13 050 4 gusting 7 1.1 7.4
2020-Jan-24 16:05 075 3 gusting 7 1.1 7.1
2020-Jan-24 15:55 080 2 gusting 7 1.1 7.1
2020-Jan-24 15:45 110 2 gusting 7 1.1 7.3
2020-Jan-24 15:34 050 3 gusting 5 1.1 7.5
2020-Jan-24 15:24 1.1 7.3
2020-Jan-24 15:16 075 2 gusting 5 1.1 7.0
2020-Jan-24 15:04 050 0 gusting 5 1.1 7.5
2020-Jan-24 14:54 055 2 gusting 7 1.1 7.1
2020-Jan-24 14:43 050 1 gusting 4 1.1 7.0
2020-Jan-24 14:34 130 1 gusting 2 1.1 6.7
2020-Jan-24 14:24 115 1 gusting 6 1.1 7.1
2020-Jan-24 14:16 045 1 gusting 3 1.1 6.9
2020-Jan-24 14:04 040 1 gusting 7 1.1 6.9
2020-Jan-24 13:53 070 1 gusting 3 1.1 6.8
2020-Jan-24 13:43 035 2 gusting 2 1.1 6.8
2020-Jan-24 13:33 065 1 gusting 5 1.1 6.7
2020-Jan-24 13:25 100 0 gusting 5 1.1 6.6
2020-Jan-24 13:13 070 2 gusting 5 1.1 6.9
2020-Jan-24 13:04 120 2 gusting 5 1.1 6.9
2020-Jan-24 12:55 070 1 gusting 2 1.1 7.1
2020-Jan-24 12:45 085 1 gusting 2 1.1 7.1
2020-Jan-24 12:33 1.1 7.1
2020-Jan-24 12:23 015 2 gusting 3 1.1 7.2
2020-Jan-24 12:14 1.1 7.0
2020-Jan-24 12:04 075 1 gusting 7 1.1 7.0
2020-Jan-24 11:56 050 4 gusting 7 1.1 7.0
2020-Jan-24 11:42 070 0 gusting 4 1.1 6.9
2020-Jan-24 11:34 125 3 gusting 4 1.1 6.9
2020-Jan-24 11:25 055 3 gusting 6 1.1 7.0
2020-Jan-24 11:16 120 1 gusting 9 1.1 6.9
2020-Jan-24 11:05 070 1 gusting 4 1.1 6.9
2020-Jan-24 10:57 115 2 gusting 6 1.1 6.9
2020-Jan-24 10:44 125 3 gusting 6 1.1 6.9
2020-Jan-24 10:34 075 1 gusting 3 1.1 6.9
2020-Jan-24 10:24 125 5 gusting 8 1.1 6.9
2020-Jan-24 10:14 045 1 gusting 3 1.1 7.0
2020-Jan-24 10:03 045 1 gusting 4 1.1 7.1
2020-Jan-24 09:57 130 1 gusting 4 1.1 7.1
2020-Jan-24 09:44 095 2 gusting 8 1.1 7.1
2020-Jan-24 09:35 100 1 gusting 9 1.1 7.0
2020-Jan-24 09:24 130 3 gusting 5 1.1 7.1
2020-Jan-24 09:13 075 2 gusting 5 1.1 7.2
2020-Jan-24 09:04 100 1 gusting 4 1.1 7.2
2020-Jan-24 08:55 080 1 gusting 5 1.1 7.2
2020-Jan-24 08:45 095 1 gusting 5 1.1 7.4
2020-Jan-24 08:34 125 1 gusting 4 1.1 7.2
2020-Jan-24 08:23 095 1 gusting 3 1.1 7.3
2020-Jan-24 08:13 080 2 gusting 7 1.1 7.2
2020-Jan-24 08:03 115 3 gusting 8 1.1 7.1
2020-Jan-24 07:56 120 3 gusting 7 1.1 7.1
2020-Jan-24 07:44 085 2 gusting 5 1.1 7.3
2020-Jan-24 07:34 075 1 gusting 7 1.1 7.3
2020-Jan-24 07:25 125 3 gusting 5 1.1 7.3
2020-Jan-24 07:13 070 2 gusting 6 1.1 7.6
2020-Jan-24 07:06 070 0 gusting 4 1.1 7.2
2020-Jan-24 06:54 1.1 7.0
2020-Jan-24 06:44 195 0 gusting 3 1.1 7.2
2020-Jan-24 06:35 155 2 gusting 7 1.1 7.5
2020-Jan-24 06:26 080 2 gusting 6 1.1 7.5
2020-Jan-24 06:13 085 2 gusting 8 1.1 7.5
2020-Jan-24 06:05 115 3 gusting 8 1.1 7.4
2020-Jan-24 05:53 090 2 gusting 5 1.1 7.4
2020-Jan-24 05:44 080 1 gusting 5 1.1 7.4
2020-Jan-24 05:36 090 2 gusting 8 1.1 7.5
2020-Jan-24 05:23 095 2 gusting 5 1.1 7.7
2020-Jan-24 05:14 075 2 gusting 9 1.1 7.7
2020-Jan-24 05:04 125 5 gusting 9 1.1 7.8
2020-Jan-24 04:56 105 2 gusting 6 1.1 7.7
2020-Jan-24 04:44 055 2 gusting 13 1.1 7.9
2020-Jan-24 04:36 070 6 gusting 13 1.1 8.1
2020-Jan-24 04:24 105 3 gusting 9 1.1 7.9
2020-Jan-24 04:14 060 4 gusting 13 1.1 7.8
2020-Jan-24 04:05 075 4 gusting 9 1.1 7.9
2020-Jan-24 03:56 085 5 gusting 11 1.1 7.8
2020-Jan-24 03:43 080 4 gusting 10 1.1 7.8
2020-Jan-24 03:36 095 5 gusting 9 1.1 7.9
2020-Jan-24 03:24 080 2 gusting 6 1.1 8.0
2020-Jan-24 03:14 095 3 gusting 7 1.1 7.9
2020-Jan-24 03:06 110 3 gusting 8 1.1 8.0
2020-Jan-24 02:55 095 2 gusting 5 1.1 8.1
2020-Jan-24 02:44 090 2 gusting 4 1.1 8.1
2020-Jan-24 02:34 080 1 gusting 5 1.1 8.2
2020-Jan-24 02:24 075 1 gusting 4 1.1 8.1
2020-Jan-24 02:14 030 0 gusting 4 1.1 8.1
2020-Jan-24 02:05 1.1 8.2
2020-Jan-24 01:55 120 2 gusting 4 1.1 8.1
2020-Jan-24 01:44 120 2 gusting 5 1.1 8.4
2020-Jan-24 01:34 135 1 gusting 7 1.1 8.3
2020-Jan-24 01:24 115 2 gusting 8 1.1 8.5
2020-Jan-24 01:14 110 2 gusting 4 1.1 8.5
2020-Jan-24 01:06 115 2 gusting 4 1.1 8.5
2020-Jan-24 00:53 100 1 gusting 4 1.1 8.6
2020-Jan-24 00:36 085 1 gusting 4 1.1 8.7
2020-Jan-24 00:24 090 1 gusting 4 1.1 8.7
2020-Jan-24 00:14 100 2 gusting 4 1.1 8.7
2020-Jan-24 00:05 075 2 gusting 4 1.1 8.8
2020-Jan-23 23:55 125 3 gusting 6 1.1 8.9
2020-Jan-23 23:44 105 3 gusting 6 1.1 9.0
2020-Jan-23 23:36 115 2 gusting 5 1.1 9.0
2020-Jan-23 23:24 075 2 gusting 11 1.1 9.0
2020-Jan-23 23:14 085 3 gusting 6 1.1 9.1
2020-Jan-23 23:04 110 2 gusting 7 1.1 9.0
2020-Jan-23 22:53 055 4 gusting 8 1.1 9.0
2020-Jan-23 22:43 095 2 gusting 11 1.1 9.0
2020-Jan-23 22:34 120 3 gusting 5 1.1 9.1
2020-Jan-23 22:26 090 1 gusting 3 1.1 9.2
2020-Jan-23 22:14 085 1 gusting 5 1.1 9.1
2020-Jan-23 22:06 090 2 gusting 5 1.1 9.3
2020-Jan-23 21:54 095 1 gusting 5 1.1 9.3
2020-Jan-23 21:44 115 2 gusting 3 1.1 9.3
2020-Jan-23 21:33 110 1 gusting 2 1.1 9.4
2020-Jan-23 21:26 085 0 gusting 2 1.1 9.2
2020-Jan-23 21:14 140 1 gusting 2 1.1 9.4
2020-Jan-23 21:04 1.1 9.2
2020-Jan-23 20:54 085 1 gusting 4 1.1 9.2
2020-Jan-23 20:44 095 2 gusting 6 1.1 9.3
2020-Jan-23 20:34 120 2 gusting 5 1.1 9.3
2020-Jan-23 20:23 040 3 gusting 5 1.1 9.3
2020-Jan-23 20:17 060 2 gusting 5 1.1 9.1
2020-Jan-23 20:03 060 1 gusting 5 1.1 8.9
2020-Jan-23 19:57 080 1 gusting 5 1.1 8.8
2020-Jan-23 19:46 105 2 gusting 5 1.1 8.6
2020-Jan-23 19:33 085 2 gusting 5 1.1 8.6
2020-Jan-23 19:25 080 2 gusting 8 1.1 8.5
2020-Jan-23 19:16 085 3 gusting 8 1.1 8.5
2020-Jan-23 19:05 105 3 gusting 5 1.1 8.5
2020-Jan-23 18:54 125 4 gusting 5 1.1 8.3
2020-Jan-23 18:44 085 2 gusting 5 1.1 8.4
2020-Jan-23 18:35 085 1 gusting 3 1.1 8.4
2020-Jan-23 18:25 075 2 gusting 3 1.1 8.4
2020-Jan-23 18:15 095 1 gusting 4 1.1 8.3
2020-Jan-23 18:05 075 0 gusting 3 1.1 8.2
2020-Jan-23 17:53 130 2 gusting 4 1.1 8.2
2020-Jan-23 17:44 075 1 gusting 4 1.1 8.3
2020-Jan-23 17:33 075 1 gusting 4 1.1 8.2
2020-Jan-23 17:24 085 1 gusting 5 1.1 8.1
2020-Jan-23 17:13 080 1 gusting 4 1.1 8.2
2020-Jan-23 17:04 100 1 gusting 3 1.1 8.0
2020-Jan-23 16:54 115 1 gusting 4 1.1 8.2
2020-Jan-23 16:46 080 2 gusting 4 1.1 8.1
2020-Jan-23 16:35 070 1 gusting 4 1.1 8.1
2020-Jan-23 16:24 075 2 gusting 6 1.1 8.1
2020-Jan-23 16:16 085 1 gusting 6 1.1 8.0
2020-Jan-23 16:03 110 1 gusting 5 1.1 8.0
2020-Jan-23 15:53 120 2 gusting 5 1.1 7.9
2020-Jan-23 15:43 130 1 gusting 4 1.1 7.9
2020-Jan-23 15:35 105 1 gusting 4 1.1 8.0
2020-Jan-23 15:23 085 2 gusting 5 1.1 8.1
2020-Jan-23 15:15 055 1 gusting 5 1.1 8.1
2020-Jan-23 15:06 095 2 gusting 4 1.1 8.0
2020-Jan-23 14:53 115 1 gusting 4 1.1 7.9
2020-Jan-23 14:44 080 1 gusting 7 1.1 7.9
2020-Jan-23 14:35 075 3 gusting 7 1.1 7.9
2020-Jan-23 14:24 085 2 gusting 5 1.1 7.8
2020-Jan-23 14:13 120 2 gusting 5 1.1 7.7
2020-Jan-23 14:03 090 2 gusting 7 1.1 7.7
2020-Jan-23 13:52 070 2 gusting 4 1.1 7.6
2020-Jan-23 13:42 085 3 gusting 5 1.1 7.6
2020-Jan-23 13:23 080 1 gusting 4 1.1 7.6
2020-Jan-23 13:16 090 1 gusting 5 1.1 7.6
2020-Jan-23 13:04 120 1 gusting 5 1.1 7.6
2020-Jan-23 12:56 115 0 gusting 4 1.1 7.6
2020-Jan-23 12:43 130 0 gusting 5 1.1 7.7
2020-Jan-23 12:36 115 1 gusting 7 1.1 7.7
2020-Jan-23 12:23 075 2 gusting 8 1.1 7.5
2020-Jan-23 12:14 095 2 gusting 8 1.1 7.5
2020-Jan-23 12:02 095 3 gusting 10 1.1 7.4
2020-Jan-23 11:54 075 4 gusting 8 1.1 7.4
2020-Jan-23 11:44 080 3 gusting 10 1.1 7.3
2020-Jan-23 11:33 120 4 gusting 9 1.1 7.3
2020-Jan-23 11:24 075 2 gusting 5 1.1 7.4
2020-Jan-23 11:13 080 3 gusting 5 1.1 7.3
2020-Jan-23 11:05 080 3 gusting 7 1.1 7.2
2020-Jan-23 10:57 115 2 gusting 5 1.1 7.1
2020-Jan-23 10:44 125 3 gusting 6 1.1 7.1
2020-Jan-23 10:33 080 2 gusting 6 1.1 7.0
2020-Jan-23 10:23 090 2 gusting 7 1.1 7.1
2020-Jan-23 10:14 075 3 gusting 6 1.1 7.1
2020-Jan-23 10:05 125 5 gusting 10 1.1 7.0